Weather Roundup
Issued by NWS

Home | Current Version | Previous Version | Text Only | Print | Product List | Glossary On
Versions: 1 2 3 4 5 6 7 8 9 10 11 12 13 14 15 16 17 18 19 20 21 22 23 24 25 26 27 28 29 30 31 32 33 34 35 36 37 38 39 40 41 42 43 44 45 46 47 48 49 50
000
NZUS93 KARX 011159
HRRWXR

CURRENT HOURLY OBSERVATIONS ACROSS
MUCH OF THE UPPER MISSISSIPPI VALLEY
NATIONAL WEATHER SERVICE LA CROSSE WI
700 AM CDT TUE SEP 01 2015


...SOUTHEAST MINNESOTA...


CITY           SKY/WX    TMP DP  RH WIND       PRES   REMARKS
ROCHESTER      FOG       67  66  97 S7        29.97S VSB<1/4
ROCHESTER/MAYO PTSUNNY   68  68 100 SE5       29.96S
WINONA         PTCLDY    70  68  94 CALM      29.96R FOG
AUSTIN           N/A     70  68  94 S5        29.96S FOG
ALBERT LEA     PTCLDY    68  66  94 S5        29.95S FOG
DODGE CENTER   FOG       66  64  94 SE6       29.96S VSB<1/4
PRESTON        FOG       66  65  96 S5        29.99R VSB 3/4
OWATONNA       CLEAR     70  66  88 SE6       29.94S FOG
FARIBAULT      FOG       63  63 100 CALM      29.94R VSB 1/4
$$

...ELSEWHERE IN MINNESOTA...


CITY           SKY/WX    TMP DP  RH WIND       PRES   REMARKS
MINNEAPOLIS    CLOUDY    70  66  87 SE6       29.92S FOG
INTNL FALLS    FOG       52  51  97 CALM      29.89R VSB 1/4
DULUTH         MOCLDY    68  66  93 SW3       29.91R FOG
RED WING       PTCLDY    70  66  88 SE5       29.92S FOG
REDWOOD FALLS  MOCLDY    66  65  96 S6        29.91R FOG
MANKATO        CLEAR     66  63  88 S3        29.93R
WORTHINGTON    MOCLDY    64  61  88 CALM      29.92S
FAIRMONT       CLEAR     63  57  82 S3        29.93R
$$

...SOUTHWEST WISCONSIN...


CITY           SKY/WX    TMP DP  RH WIND       PRES   REMARKS
LA CROSSE      CLEAR     69  68  96 SE6       29.96S FOG
PRAIRIE DU CHI CLEAR     68  66  95 CALM      29.99R FOG
BOSCOBEL       FOG       65  64  97 CALM      30.00R VSB<1/4
LONE ROCK      PTCLDY    66  64  93 E3        30.00S FOG
PLATTEVILLE      N/A     69  68  99 S5        30.02R
FORT MC COY    CLEAR     62  61  96 CALM      29.98S
VIROQUA          N/A     68  68 100 CALM      30.01R VSB 1
WIS DELLS      CLEAR     69  66  90 S6        30.00S FOG
$$

...ELSEWHERE IN WISCONSIN...


CITY           SKY/WX    TMP DP  RH WIND       PRES   REMARKS
MILWAUKEE      PTCLDY    70  67  90 CALM      30.03R FOG
MADISON        PTCLDY    70  68  93 S7        30.01S FOG
GREEN BAY      NOT AVBL
EAU CLAIRE     FOG       68  67  96 CALM      29.94S VSB 3/4
BLACK RVR FLS  FOG       60  60 100 CALM      29.97S VSB<1/4
MEDFORD        FOG       64  64 100 S3        29.99S VSB<1/4
WAUSAU         CLEAR     65  64  97 SE3       29.99R FOG
WIS RAPIDS     PTCLDY    66  64  93 S3        30.00S FOG
MARSHFIELD     FOG       65  62  90 CALM      29.99S VSB 1/4
RICE LAKE      FOG       69  67  96 SE5       29.95F VSB<1/4
$$

...NORTHEAST IOWA...


CITY           SKY/WX    TMP DP  RH WIND       PRES   REMARKS
DECORAH        PTCLDY    68  68 100 S5        29.98R FOG
MASON CITY     FOG       64  64 100 S5        29.97S VSB 1
CHARLES CITY   PTCLDY    68  68 100 S6        29.98R FOG
OELWEIN        CLEAR     66  66 100 SE6       29.99S FOG
$$

...ELSEWHERE IN IOWA...


CITY           SKY/WX    TMP DP  RH WIND       PRES   REMARKS
DES MOINES     PTCLDY    69  66  90 S7        29.97R FOG
IOWA CITY      CLEAR     66  65  96 CALM      30.02R FOG
FORT DODGE     CLEAR     68  64  88 S5        29.95S
$$

...NORTHERN ILLINOIS...


CITY           SKY/WX    TMP DP  RH WIND       PRES   REMARKS
CHICAGO-OHARE  PTCLDY    72  70  93 S5        30.05R FOG
CHICAGO-MIDWAY PTCLDY    74  69  85 S7        30.05R
MOLINE         CLEAR     71  68  90 CALM      30.03R FOG
ROCKFORD       CLEAR     69  67  93 S6        30.05R FOG
PEORIA         CLEAR     73  69  87 S5        30.06R FOG
$$

NOTE: "FAIR" INDICATES FEW OR NO CLOUDS BELOW 12,000 FEET WITH NO
SIGNIFICANT WEATHER AND/OR OBSTRUCTIONS TO VISIBILITY. WIND
SPEEDS ARE IN MILES-PER-HOUR.



USA.gov is the U.S. government's official web portal to all federal, state and local government web resources and services.